Location: Unspecified
(0.0000°N, 0.0000°E)
Time: 11:06:07
(UTC+00:00)

Falcon 9 debris - Visible Passes

Search period start: 29 May 2020 00:00
Search period end: 08 June 2020 00:00
Orbit: 428 x 435 km, 53.0° (Epoch: 28 May)

Date Brightness Start Highest point End Pass type
(mag) Time Alt. Az. Time Alt. Az. Time Alt. Az.
02 Jun ? 19:28:54 10° SSW 19:29:58 19° SSW 19:29:58 19° SSW visible
03 Jun ? 18:45:40 10° S 18:48:46 32° SE 18:51:52 10° ENE visible
04 Jun ? 19:39:51 10° W 19:41:58 15° NW 19:44:04 10° NNW visible
05 Jun ? 18:55:22 10° WSW 18:58:25 30° NW 19:01:27 10° N visible
